Other Surface Observations
Issued by NWS Charleston, SC

Home | Current Version | Previous Version | Text Only | Print | Product List | Glossary On
Versions: 1 2 3 4 5 6 7 8 9 10 11 12 13 14 15 16 17 18 19 20 21 22 23 24 25 26 27 28 29 30 31 32 33 34 35 36 37 38 39 40 41 42 43 44 45 46 47 48 49 50
000
SXUS52 KCHS 311128
OSOCHS

MARINE OBSERVATIONS
NATIONAL WEATHER SERVICE CHARLESTON SC
700 AM EDT TUE MAY 31 2016

...DOWNTOWN CHARLESTON AND HARBOR...

CITY           SKY/WX    TMP DP  RH WIND       PRES   REMARKS
WATERFRONT PRK   N/A     71  71 100 VRB2      29.87R

...LAKE MOULTRIE...

CITY           SKY/WX    TMP DP  RH WIND       PRES   REMARKS
PINOPOLIS        N/A     73  70  88 N7        29.81R

...LAKE AND SUPPLEMENTAL COASTAL OBSERVATIONS...

STATION/POSITION TIME  TEMP    WIND        PRES    WAVE   SWELL
                       AIR SEA DIR/SP/G            HT/PER HT/PER/DIR
                 (UTC) (F)     (DEG/KT/KT) (MB)    (FT/S) (FT/S/D)
FORT PULASKI     1100   74 76  350/  3/  3 1013.0R
SAPELO ISLAND    1100   73     240/  4     1013.0R
WINYAH BAY       1000   70     340/  7     1010.0S
LAKE MURRAY      1100   68      20/  1/  3 1013.5R
ACE BASIN NERRS  1000   70        CALM     1012.0S


...C-MAN AND BUOY OBSERVATIONS...

STATION/POSITION TIME  TEMP    WIND        PRES    WAVE   SWELL
                       AIR SEA DIR/SP/G            HT/PER HT/PER/DIR
                 (UTC) (F)     (DEG/KT/KT) (MB)    (FT/S) (FT/S/D)
BUOY 41004       1050   74 77  310/ 14/ 16 1011.2R   4/ 8   3/ 8
BUOY 41008       1050   76 77  260/ 12/ 14 1012.3R   3/ 8   2/ 90/ 8
FOLLY BEACH CMAN 1100   71     290/  3/  4 1012.7R
CAPERS NS BUOY   1108   72 76  330/  8/ 10 1012.0R
FRIPP NS BUOY    1108   73 76  340/  6/ 10 1012.2R
5E ST. MARYS GA  1101      78                N/A     3/ 8


STATION/POSITION TIME  TEMP    WIND        PRES    WAVE   SWELL
                       AIR SEA DIR/SP/G            HT/PER HT/PER/DIR
                 (UTC) (F)     (DEG/KT/KT) (MB)    (FT/S) (FT/S/D)
FRYING PAN BUOY  1100   75 78  110/  6/  8 1011.3R
BUOY 41025       1050   76 80  170/ 17/ 19 1013.0R   6/ 9   5/150/ 9
CAPE LOOKOUT NC  1100   75      80/  1/  1 1012.3R
BUOY 41002       1050   75 75  150/ 10/ 12 1014.8R   5/ 8   5/100/ 8
BUOY 41010       1020   79 79  190/ 10/ 12 1013.7R
ST AUGUSTINE FL  1100   72 78  260/  8/ 11 1014.0R

$$




USA.gov is the U.S. government's official web portal to all federal, state and local government web resources and services.